Greenville, WI

12:12 AM CST on February 25, 2017 (GMT -0600)
Outagamie County Regional

Weather History for KATW - January, 2014

Change the Weather History Date:

Friday, January 24, 2014

  Actual Average Record
Temperature  
Mean Temperature 10 °F -  
Max Temperature 26 °F 26 °F 44 °F (1967)
Min Temperature -7 °F 11 °F -15 °F (1952)
Degree Days  
Heating Degree Days 56    
Moisture  
Dew Point -1 °F    
Average Humidity 71    
Maximum Humidity 93    
Minimum Humidity 58    
Precipitation  
Precipitation 0.00 in - - ()
Sea Level Pressure  
Sea Level Pressure 29.84 in    
Wind  
Wind Speed 16 mph (SW)    
Max Wind Speed 24 mph    
Max Gust Speed 32 mph    
Visibility 8 miles    
Events Snow    
Averages and records for this station are not official NWS values.
T = Trace of Precipitation, MM = Missing Value Source: NWS Daily Summary

Daily Weather History Graph

Daily Weather History Graph

Search for Another Location

Airport or City:

Trip Planner

Search our weather history database for the weather conditions in past years. The results will help you decide how hot, cold, wet, or windy it might be!

Date:

Astronomy

Jan. 24, 2014 Rise Set
Actual Time 7:20 AM CST 4:52 PM CST
Civil Twilight 6:48 AM CST 5:24 PM CST
Nautical Twilight 6:13 AM CST 5:59 PM CST
Astronomical Twilight 5:38 AM CST 6:33 PM CST
Moon 12:43 AM CST (1/24) 11:13 AM CST (1/24)
Length of Visible Light 10h 35m
Length of Day
9h 32m
Last Quarter, 44% of the Moon is Illuminated
Jan 24
Last Quarter
Jan 30
New
Feb 6
First Quarter
Feb 14
Full
Feb 22
Last Quarter

Hourly Weather History & Observations

Time (CST) Temp. Windchill Dew Point Humidity Pressure Visibility Wind Dir Wind Speed Gust Speed Precip Events Conditions
12:15 AM -7.6 °F -27.5 °F -16.6 °F 65% 30.32 in 10.0 mi WSW 12.7 mph - N/A   Clear
12:35 AM -7.6 °F -27.5 °F -16.6 °F 65% 30.30 in 10.0 mi SW 12.7 mph - N/A   Clear
12:55 AM -7.6 °F -28.3 °F -16.6 °F 65% 30.29 in 10.0 mi SW 13.8 mph - N/A   Clear
1:15 AM -7.6 °F -29.1 °F -16.6 °F 65% 30.28 in 10.0 mi SW 15.0 mph - N/A   Clear
1:35 AM -7.6 °F -29.8 °F -16.6 °F 65% 30.26 in 10.0 mi SW 16.1 mph - N/A   Clear
1:55 AM -7.6 °F -29.1 °F -16.6 °F 65% 30.24 in 10.0 mi SW 15.0 mph - N/A   Clear
2:15 AM -7.6 °F -28.3 °F -14.8 °F 71% 30.24 in 10.0 mi SW 13.8 mph - N/A   Clear
2:35 AM -7.6 °F -28.3 °F -14.8 °F 71% 30.22 in 10.0 mi SW 13.8 mph 18.4 mph N/A   Clear
2:55 AM -5.8 °F -26.8 °F -14.8 °F 65% 30.20 in 10.0 mi SW 15.0 mph - N/A   Clear
3:15 AM -5.8 °F -25.2 °F -13.0 °F 71% 30.18 in 10.0 mi SSW 12.7 mph - N/A   Clear
3:35 AM -5.8 °F -28.8 °F -13.0 °F 71% 30.15 in 10.0 mi SSW 18.4 mph - N/A   Clear
3:55 AM -4.0 °F -23.7 °F -9.4 °F 78% 30.14 in 10.0 mi SSW 13.8 mph - N/A   Scattered Clouds
4:15 AM -4.0 °F -23.7 °F -9.4 °F 78% 30.10 in 10.0 mi South 13.8 mph - N/A   Mostly Cloudy
4:35 AM -2.2 °F -22.9 °F -9.4 °F 71% 30.08 in 10.0 mi SSW 16.1 mph - N/A   Mostly Cloudy
4:55 AM -0.4 °F -20.5 °F -9.4 °F 66% 30.05 in 10.0 mi South 16.1 mph - N/A   Scattered Clouds
5:15 AM -0.4 °F -21.7 °F -9.4 °F 66% 30.01 in 10.0 mi SSW 18.4 mph 24.2 mph N/A   Mostly Cloudy
5:20 AM -2.2 °F -23.5 °F -9.4 °F 71% 30.02 in 10.0 mi SSW 17.3 mph - N/A   Mostly Cloudy
5:45 AM -0.4 °F - -9.4 °F 66% 29.99 in 10.0 mi SSW 181.8 mph 28.8 mph N/A   Overcast
6:45 AM 3.2 °F -19.0 °F -5.8 °F 66% 29.92 in 10.0 mi SSW 23.0 mph 29.9 mph N/A   Mostly Cloudy
7:45 AM 5.0 °F -17.1 °F -4.0 °F 66% 29.85 in 10.0 mi SSW 24.2 mph 31.1 mph N/A   Overcast
8:27 AM 6.8 °F -14.3 °F -2.2 °F 67% 29.81 in 3.0 mi SW 23.0 mph 29.9 mph N/A Snow Light Snow
8:45 AM 8.6 °F -12.3 °F -0.4 °F 67% 29.80 in 5.0 mi SW 24.2 mph 32.2 mph N/A Snow Light Snow
9:00 AM 8.6 °F -12.3 °F -0.4 °F 67% 29.80 in 1.5 mi SW 24.2 mph 32.2 mph N/A Snow Light Snow
9:45 AM 8.6 °F -11.9 °F 1.4 °F 73% 29.77 in 1.5 mi SW 23.0 mph 28.8 mph N/A Snow Light Snow
10:45 AM 12.2 °F -6.3 °F 1.4 °F 62% 29.73 in 7.0 mi SW 20.7 mph 29.9 mph N/A Snow Light Snow
11:45 AM 12.2 °F -5.8 °F 3.2 °F 67% 29.70 in 10.0 mi SW 19.6 mph 27.6 mph N/A   Overcast
12:45 PM 15.8 °F -1.9 °F 3.2 °F 58% 29.61 in 10.0 mi SW 21.9 mph 28.8 mph N/A   Overcast
1:45 PM 15.8 °F -1.1 °F 5.0 °F 62% 29.57 in 10.0 mi SW 19.6 mph 25.3 mph N/A   Overcast
2:45 PM 17.6 °F 1.3 °F 6.8 °F 63% 29.54 in 10.0 mi SW 19.6 mph - N/A   Overcast
4:45 PM 17.6 °F 2.2 °F 8.6 °F 68% 29.50 in 10.0 mi SW 17.3 mph - N/A   Overcast
5:45 PM 19.4 °F 4.1 °F 12.2 °F 74% 29.46 in 4.0 mi SW 18.4 mph - N/A Snow Light Snow
6:45 PM 19.4 °F 5.5 °F 15.8 °F 86% 29.43 in 3.0 mi SW 15.0 mph - N/A Snow Light Snow
7:45 PM 21.2 °F 7.3 °F 17.6 °F 86% 29.39 in 5.0 mi SW 16.1 mph - N/A Snow Light Snow
8:45 PM 21.2 °F 7.3 °F 19.4 °F 93% 29.36 in 4.0 mi SW 16.1 mph - N/A Snow Light Snow
9:45 PM 24.8 °F 12.4 °F 19.4 °F 80% 29.34 in 4.0 mi WSW 15.0 mph - N/A Snow Light Snow
10:45 PM 24.8 °F 13.4 °F 21.2 °F 86% 29.33 in 5.0 mi WSW 12.7 mph - N/A Snow Light Snow
11:15 PM 26.6 °F 16.2 °F 23.0 °F 86% 29.33 in 7.0 mi West 11.5 mph - N/A Snow Light Snow
11:35 PM 26.6 °F 16.2 °F 23.0 °F 86% 29.32 in 5.0 mi West 11.5 mph - N/A Snow Light Snow
11:55 PM 26.6 °F 15.7 °F 23.0 °F 86% 29.32 in 10.0 mi West 12.7 mph - N/A Snow Light Snow